DECAYED

STARLINK-6300, 56390 (Decayed)

Orbit data source: Space-Track

STARLINK-6300, 56390 was a payload satellite owned by SpaceX/Seattle (US) in LEO that was launched on Thu, 04 May 2023 UTC via an FALCON 9 launch vehicle from the Air Force Eastern Test Range (AFETR). Payload-class satellites include a variety of spacecraft equipped with specific instruments for various scientific and technological missions. These include communications satellites like Starlink; space stations such as the ISS; scientific satellites like the Hubble; Earth observation satellites from companies like Planet Labs, Umbra, and HawkEye 360; GPS; miniature CubeSats for education and research; and military/defense satellites.

Not visible in the next 10 days
Identifier
56390, 2023-061S
Orbit
Decayed
Country
Flag of USUS
Related business
Manufacturer
SpaceX/Seattle
Mission
Decayed Commercial Communications
Bus & Motor
STARLINK, Unknown motor
Mass
305 kg wet, ~290 kg dry
Launch date (UTC)
2023-05-04 (3 years ago)
Launch vehicle
FALCON 9
Launch site
Air Force Eastern Test Range (AFETR)
Object type
Payload
Rocket body
Debris
Shape & HBR
Box + 1 Pan, 10.1 m
Radar Cross Section
11.087 m², Large (>1 m²)

Expand to show TLE details & history
Last TLE update: 1 year ago

TLE from 1 year ago
0 STARLINK-6300
1 56390U 23061S   25067.15737433  .05655105  91335-5  85848-3 0  9997
2 56390  42.9857 324.0195 0010370 257.9749 234.0594 16.33034715102652
Epoch: 2025-03-08T03:46Z
TLE epoch observation values (Epoch: 2025-03-08T03:46:37.142Z)
Latitude
30.59616°
Longitude
-117.85006°
Altitude
189.018 km
Speed
7.795 km/s
True Right ascension
06h 59m 38s
True Declination
30° 25' 58"
Sunlit
Object was in full shadow at epoch
Visualization orbit readout
Latitude
Unknown
Longitude
Unknown
Altitude
Unknown
Speed
Unknown
Apparent Right ascension
Unknown
Apparent Declination
Unknown
Sunlit
N/A
Visualization observer readout
Local Sidereal Time
21:31:46
Azimuth
Unknown
Elevation
Unknown
Doppler factor
Unknown
Orbital elements
Apogee altitude
193.24 km
Perigee altitude
179.625 km
Semi-major axis
6,564.57 km
Eccentricity
0.00104
Inclination
42.9857°
RAAN
324.0195°
Arg. of periapsis
257.9749°
True anomaly
233.96326°
Mean anomaly
234.0594°
Eccentric anomaly
234.01132°
Mean motion
4.08069 °/min
Orbital period
88.22 mins
BSTAR
0.00085848
Loading maneuver chart data...
Computing Atmospheric mass density...
Loading historical data...
Loading historical data...
Loading historical data...
Loading historical data...
Loading historical data...
Loading historical data...
Loading historical data...

Documentation

Showing up to 5 results
|